When you browse on this site, cookies collect data to enhance your experience and personalize the content and advertising you see.
Visit our Privacy Policy to learn more. By continuing to use the site, you agree to this use of cookies and data.
  • In United Kingdom
  • List of Countries
  • For 7 days
  • Water Temperature
  • Weather Map
  • Weather Widgets
  • user-avatar
    Login

    Hourly Weather Khipro

    Today, 14 December, Saturday

    Time Temperature Precipitation Wind Pressure Humidity
    00:00 +20°C° 0 mm 3 mps 760 mmHg 44%
    01:00 +20°C° 0 mm 3 mps 760 mmHg 45%
    02:00 +19°C° 0 mm 3 mps 760 mmHg 45%
    03:00 +19°C° 0 mm 3 mps 760 mmHg 46%
    04:00 +19°C° 0 mm 3 mps 760 mmHg 47%
    05:00 +19°C° 0 mm 3 mps 760 mmHg 48%
    06:00 +19°C° 0 mm 3 mps 761 mmHg 48%
    07:00 +19°C° 0 mm 3 mps 761 mmHg 48%
    08:00 +19°C° 0 mm 3 mps 762 mmHg 48%
    09:00 +21°C° 0 mm 4 mps 762 mmHg 44%
    10:00 +23°C° 0 mm 4 mps 763 mmHg 39%
    11:00 +26°C° 0 mm 4 mps 763 mmHg 34%
    12:00 +26°C° 0 mm 4 mps 762 mmHg 33%
    13:00 +27°C° 0 mm 3 mps 761 mmHg 31%
    14:00 +28°C° 0 mm 2 mps 761 mmHg 29%
    15:00 +28°C° 0 mm 2 mps 761 mmHg 29%
    16:00 +27°C° 0 mm 2 mps 760 mmHg 29%
    17:00 +27°C° 0 mm 2 mps 760 mmHg 29%
    18:00 +26°C° 0 mm 3 mps 761 mmHg 30%
    19:00 +25°C° 0 mm 3 mps 761 mmHg 31%
    20:00 +23°C° 0 mm 4 mps 762 mmHg 32%
    21:00 +22°C° 0 mm 4 mps 762 mmHg 31%
    22:00 +22°C° 0 mm 3 mps 762 mmHg 30%
    23:00 +21°C° 0 mm 3 mps 762 mmHg 29%

    Tomorrow, 15 December, Sunday

    Time Temperature Precipitation Wind Pressure Humidity
    00:00 +21°C° 0 mm 3 mps 762 mmHg 30%
    01:00 +20°C° 0 mm 3 mps 762 mmHg 31%
    02:00 +20°C° 0 mm 2 mps 762 mmHg 32%
    03:00 +19°C° 0 mm 2 mps 761 mmHg 33%
    04:00 +19°C° 0 mm 2 mps 761 mmHg 33%
    05:00 +18°C° 0 mm 2 mps 761 mmHg 33%
    06:00 +19°C° 0 mm 3 mps 762 mmHg 33%
    07:00 +19°C° 0 mm 3 mps 762 mmHg 33%
    08:00 +19°C° 0 mm 3 mps 763 mmHg 33%
    09:00 +21°C° 0 mm 3 mps 763 mmHg 30%
    10:00 +22°C° 0 mm 4 mps 763 mmHg 26%
    11:00 +25°C° 0 mm 4 mps 763 mmHg 23%
    12:00 +26°C° 0 mm 4 mps 762 mmHg 22%
    13:00 +26°C° 0 mm 4 mps 762 mmHg 21%
    14:00 +27°C° 0 mm 4 mps 761 mmHg 20%
    15:00 +27°C° 0 mm 4 mps 761 mmHg 21%
    16:00 +26°C° 0 mm 4 mps 761 mmHg 21%
    17:00 +26°C° 0 mm 4 mps 760 mmHg 22%
    18:00 +25°C° 0 mm 3 mps 761 mmHg 24%
    19:00 +24°C° 0 mm 3 mps 762 mmHg 26%
    20:00 +22°C° 0 mm 3 mps 762 mmHg 27%
    21:00 +21°C° 0 mm 3 mps 762 mmHg 29%
    22:00 +21°C° 0 mm 3 mps 762 mmHg 31%
    23:00 +20°C° 0 mm 3 mps 762 mmHg 34%

    Day after tomorrow, 16 December, Monday

    Time Temperature Precipitation Wind Pressure Humidity
    00:00 +20°C° 0 mm 3 mps 762 mmHg 35%
    01:00 +19°C° 0 mm 3 mps 762 mmHg 37%
    02:00 +19°C° 0 mm 3 mps 762 mmHg 38%
    03:00 +18°C° 0 mm 3 mps 762 mmHg 39%
    04:00 +18°C° 0 mm 3 mps 762 mmHg 40%
    05:00 +18°C° 0 mm 3 mps 762 mmHg 41%
    06:00 +18°C° 0 mm 3 mps 763 mmHg 41%
    07:00 +18°C° 0 mm 3 mps 763 mmHg 41%
    08:00 +18°C° 0 mm 3 mps 764 mmHg 41%
    09:00 +20°C° 0 mm 4 mps 764 mmHg 36%
    10:00 +22°C° 0 mm 4 mps 764 mmHg 32%
    11:00 +23°C° 0 mm 5 mps 764 mmHg 27%
    12:00 +25°C° 0 mm 5 mps 763 mmHg 26%
    13:00 +26°C° 0 mm 5 mps 763 mmHg 24%
    14:00 +26°C° 0 mm 5 mps 762 mmHg 23%
    15:00 +26°C° 0 mm 5 mps 762 mmHg 23%
    16:00 +26°C° 0 mm 4 mps 762 mmHg 24%
    17:00 +25°C° 0 mm 4 mps 762 mmHg 24%
    18:00 +23°C° 0 mm 4 mps 762 mmHg 26%
    19:00 +22°C° 0 mm 4 mps 763 mmHg 28%
    20:00 +21°C° 0 mm 3 mps 763 mmHg 30%
    21:00 +21°C° 0 mm 3 mps 763 mmHg 31%
    22:00 +20°C° 0 mm 3 mps 763 mmHg 32%
    23:00 +20°C° 0 mm 3 mps 763 mmHg 34%

    17 December, Tuesday

    Time Temperature Precipitation Wind Pressure Humidity
    00:00 +19°C° 0 mm 3 mps 763 mmHg 35%
    01:00 +19°C° 0 mm 3 mps 763 mmHg 36%
    02:00 +18°C° 0 mm 3 mps 763 mmHg 37%
    03:00 +18°C° 0 mm 3 mps 763 mmHg 38%
    04:00 +17°C° 0 mm 3 mps 763 mmHg 40%
    05:00 +17°C° 0 mm 3 mps 763 mmHg 41%
    06:00 +17°C° 0 mm 3 mps 764 mmHg 41%
    07:00 +17°C° 0 mm 3 mps 764 mmHg 41%
    08:00 +17°C° 0 mm 3 mps 765 mmHg 41%
    09:00 +19°C° 0 mm 4 mps 765 mmHg 36%
    10:00 +22°C° 0 mm 5 mps 765 mmHg 31%
    11:00 +25°C° 0 mm 5 mps 765 mmHg 26%
    12:00 +25°C° 0 mm 5 mps 764 mmHg 24%
    13:00 +26°C° 0 mm 5 mps 763 mmHg 22%
    14:00 +27°C° 0 mm 5 mps 762 mmHg 20%
    15:00 +26°C° 0 mm 4 mps 762 mmHg 21%
    16:00 +26°C° 0 mm 4 mps 762 mmHg 21%
    17:00 +25°C° 0 mm 4 mps 762 mmHg 22%
    18:00 +24°C° 0 mm 3 mps 762 mmHg 24%
    19:00 +22°C° 0 mm 3 mps 762 mmHg 26%
    20:00 +21°C° 0 mm 3 mps 763 mmHg 28%
    21:00 +21°C° 0 mm 3 mps 763 mmHg 29%
    22:00 +20°C° 0 mm 3 mps 763 mmHg 30%
    23:00 +19°C° 0 mm 3 mps 763 mmHg 31%

    18 December, Wednesday

    Time Temperature Precipitation Wind Pressure Humidity
    00:00 +19°C° 0 mm 3 mps 763 mmHg 31%
    01:00 +19°C° 0 mm 3 mps 763 mmHg 32%
    02:00 +18°C° 0 mm 3 mps 762 mmHg 32%
    03:00 +18°C° 0 mm 2 mps 762 mmHg 32%
    04:00 +17°C° 0 mm 2 mps 762 mmHg 32%
    05:00 +17°C° 0 mm 2 mps 762 mmHg 32%
    06:00 +17°C° 0 mm 2 mps 763 mmHg 31%
    07:00 +18°C° 0 mm 2 mps 763 mmHg 30%
    08:00 +18°C° 0 mm 2 mps 763 mmHg 28%
    09:00 +20°C° 0 mm 2 mps 763 mmHg 26%
    10:00 +21°C° 0 mm 2 mps 763 mmHg 23%
    11:00 +24°C° 0 mm 2 mps 763 mmHg 20%
    12:00 +25°C° 0 mm 2 mps 763 mmHg 19%
    13:00 +26°C° 0 mm 2 mps 762 mmHg 18%
    14:00 +27°C° 0 mm 2 mps 761 mmHg 17%
    15:00 +26°C° 0 mm 2 mps 761 mmHg 18%
    16:00 +26°C° 0 mm 2 mps 760 mmHg 18%
    17:00 +26°C° 0 mm 2 mps 760 mmHg 18%
    18:00 +25°C° 0 mm 2 mps 760 mmHg 19%
    19:00 +24°C° 0 mm 2 mps 761 mmHg 20%
    20:00 +21°C° 0 mm 2 mps 761 mmHg 21%
    21:00 +21°C° 0 mm 2 mps 761 mmHg 21%
    22:00 +21°C° 0 mm 2 mps 761 mmHg 20%
    23:00 +20°C° 0 mm 2 mps 761 mmHg 20%

    19 December, Thursday

    Time Temperature Precipitation Wind Pressure Humidity
    00:00 +20°C° 0 mm 2 mps 761 mmHg 20%
    01:00 +20°C° 0 mm 2 mps 761 mmHg 20%
    02:00 +19°C° 0 mm 2 mps 760 mmHg 20%
    03:00 +19°C° 0 mm 2 mps 760 mmHg 20%
    04:00 +19°C° 0 mm 2 mps 760 mmHg 20%
    05:00 +18°C° 0 mm 2 mps 760 mmHg 20%
    06:00 +19°C° 0 mm 2 mps 761 mmHg 21%
    07:00 +19°C° 0 mm 2 mps 761 mmHg 21%
    08:00 +19°C° 0 mm 2 mps 762 mmHg 21%
    09:00 +21°C° 0 mm 2 mps 762 mmHg 19%
    10:00 +24°C° 0 mm 2 mps 762 mmHg 16%
    11:00 +26°C° 0 mm 2 mps 762 mmHg 14%
    12:00 +27°C° 0 mm 2 mps 761 mmHg 14%
    13:00 +27°C° 0 mm 1 mps 760 mmHg 14%
    14:00 +28°C° 0 mm 1 mps 759 mmHg 14%
    15:00 +28°C° 0 mm 1 mps 759 mmHg 15%
    16:00 +28°C° 0 mm 1 mps 759 mmHg 16%
    17:00 +27°C° 0 mm 1 mps 758 mmHg 17%
    18:00 +26°C° 0 mm 1 mps 759 mmHg 18%
    19:00 +25°C° 0 mm 2 mps 759 mmHg 19%
    20:00 +24°C° 0 mm 2 mps 759 mmHg 20%
    21:00 +24°C° 0 mm 2 mps 759 mmHg 20%
    22:00 +23°C° 0 mm 2 mps 759 mmHg 20%
    23:00 +23°C° 0 mm 2 mps 759 mmHg 20%
    Show more